Location: Haliburton Scout Reserve
(45.0900°N, 78.3200°W)
Time: 01:28:33
(UTC-04:00)

IDEFIX/ARIANE 42P - Visible Passes

Search period start: 26 September 2017 00:00
Search period end: 06 October 2017 00:00
Orbit: 786 x 802 km, 98.2° (Epoch: 25 September)

Date Brightness Start Highest point End Pass type
(mag) Time Alt. Az. Time Alt. Az. Time Alt. Az.
26 Sep 5.0 05:54:24 10° NE 05:58:49 26° E 06:03:11 10° SSE visible
27 Sep 5.6 05:27:13 10° NE 05:30:10 15° E 05:33:06 10° ESE visible
28 Sep 3.3 06:36:46 10° NNE 06:42:01 62° E 06:47:13 10° S visible
29 Sep 4.4 06:08:44 10° NNE 06:13:34 35° E 06:18:21 10° SSE visible
30 Sep 5.4 05:41:07 10° NE 05:44:59 20° E 05:48:51 10° SE visible
01 Oct 5.9 05:14:48 10° ENE 05:16:17 11° E 05:17:46 10° ESE visible
02 Oct 3.8 06:23:12 10° NNE 06:28:18 48° E 06:33:21 10° S visible
02 Oct 6.1 19:26:29 10° WSW 19:29:03 14° W 19:31:38 10° WNW visible
03 Oct 4.9 05:55:19 10° NE 05:59:47 27° E 06:04:13 10° SSE visible
04 Oct 5.6 05:28:03 10° NE 05:31:09 16° E 05:34:14 10° SE visible
05 Oct 3.2 06:37:43 10° NNE 06:42:59 65° ESE 06:48:11 10° S visible
